Regional Weather Roundup
Issued by NWS Goodland, KS

Home | Current Version | Previous Version | Graphics & Text | Print | Product List | Glossary Off
Versions: 1 2 3 4 5 6 7 8 9 10 11 12 13 14 15 16 17 18 19 20 21 22 23 24 25 26 27 28 29 30 31 32 33 34 35 36 37 38 39 40 41 42 43 44 45 46 47 48 49 50

000
ASUS43 KGLD 180608
RWRGLD

GOODLAND FORECAST AREA HOURLY WEATHER ROUNDUP
NATIONAL WEATHER SERVICE GOODLAND KS
1200 AM MDT THU SEP 18 2014

...OFFICIAL OBSERVATIONS...

CITY           SKY/WX    TMP DP  RH WIND       PRES   REMARKS
GOODLAND KS    PTCLDY    59  58  96 S7        29.98S
HILL CITY KS   CLEAR     67  65  93 E8        29.92S
IMPERIAL NEB   MOCLDY    66  60  81 SE10      29.98R
MCCOOK NEB     PTCLDY    63  60  90 NE5       29.96S
AKRON CO       PTCLDY    63  43  48 SW8       30.02S
BURLINGTON CO  PTCLDY    65  52  62 SE8       30.00S
LIMON CO       CLEAR     51  42  71 N6        30.08S
$$

...UNOFFICIAL OBSERVATIONS...

CITY           SKY/WX    TMP DP  RH WIND       PRES   REMARKS
COLBY KS       CLEAR     64  64 100 E6        29.96F FOG
GOVE KS          N/A     68  32  26 MISG        N/A
NORTON KS      CLEAR     64  63  94 E5        29.94
SHARON SPRINGS   N/A     63  60  88 SE7         N/A
WAKEENEY KS      N/A     67  64  91 MISG        N/A
TRENTON NEB      N/A     66  32  28 SE12        N/A
YUMA CO          N/A     58  51  77 CALM        N/A
$$



USA.gov is the U.S. government's official web portal to all federal, state and local government web resources and services.